STARLINK-1227, 45230

Orbit data source: Space-Track

STARLINK-1227, 45230 is a payload satellite owned by SpaceX/Seattle (US) in LEO that was launched on Mon, 17 Feb 2020 UTC via an FALCON 9 launch vehicle from the Air Force Eastern Test Range (AFETR). Payloads include a variety of satellites, spacecraft, and rockets equipped with specific instruments for various scientific and technological missions. These include communications satellites like Starlink; space stations such as the ISS; scientific satellites like the Hubble; Earth observation satellites from companies like Planet Labs, Umbra, and HawkEye 360; GPS; miniature CubeSats for education and research; and military/defense satellites.

Loading next visibility...
STARLINK-1227 details
Identifier
45230, 2020-012BE
Orbit
LEO
Last TLE update6 hours ago
Origin
Flag of USSpaceX/Seattle (US)
ManufacturerSpaceX/Seattle
MissionOperational Commercial Communications
Bus & MotorSTARLINK, Unknown motor
Mass260 kg wet, ~248 kg dry
Launch date (UTC)
2020-02-17 (5 years ago)
Launch vehicle
FALCON 9
Launch site
Air Force Eastern Test Range (AFETR)
Object type
Payload
Rocket body
Debris
Shape & HBRBox + 1 Pan, 8.86 m
Radar Cross Section13.562 m², Large (>1 m²)

Expand to show TLE details & history

TLE from 6 hours ago
0 STARLINK-1227
1 45230U 20012BE  24361.47441554  .00001094  00000-0  92341-4 0  9996
2 45230  53.0531 173.8419 0001600  83.8251 276.2920 15.06393461268417
Epoch: 2024-12-26T11:23Z
Definitive object data (Epoch: 2024-12-26T11:23:09.502Z)
Latitude-0.00005°
Longitude-92.40102°
Altitude547.989 km
Speed7.589 km/s
True Right ascension11h 35m 22s
True Declination0° 00' 00"
Sunlit
Object was in daylight at TLE epoch
Visualization TLE readout
Latitude-23.38037°
Longitude105.39924°
Altitude554.547 km
Speed7.584 km/s
Apparent Right ascension02h 21m 29s
Apparent Declination-34° 13' 52"
Sunlit
Object is in daylight
Visualization observer readout
Local Sidereal Time16:27:37
Azimuth87.257° E
Elevation-64.348°
Doppler factor1
Orbital elements
Apogee altitude548.611 km
Perigee altitude546.394 km
Semi-major axis6,925.64 km
Eccentricity0.00016
Inclination53.0531°
RAAN173.8419°
Arg. of periapsis83.8251°
True anomaly276.27378°
Mean anomaly276.292°
Eccentric anomaly276.28289°
Mean motion3.76577 °/min
BSTAR0.000092341
Orbital period95.6 mins
Loading maneuver chart data...

STARLINK-1227 Visibility forecast

Observer location: undefined°, undefined

Span
Click to sort rows by Start time (UTC) header in descending order
Start Az.
Max El. time (UTC)
Max El. Az.
Max El.
End time (UTC)
End Az.
4 mins2024-12-26 19:48:20.766Z349.059° N2024-12-26 19:50:20.766Z28.633° NE19.784°2024-12-26 19:52:20.766Z63.514° ENE
6 mins2024-12-26 21:27:20.766Z309.531° NW2024-12-26 21:30:20.766Z134.586° SE43.947°2024-12-26 21:33:20.766Z131.424° SE
6 mins2024-12-27 14:39:20.766Z243.322° WSW2024-12-27 14:42:20.766Z341.633° N42.045°2024-12-27 14:45:20.766Z43.336° NE
|